Mazatlan Airport, Mexico

8:11 PM MDT on May 20, 2018 (GMT -0600)
Gen Rafael Buelna International

Weather History for MMMZ - March, 2014

Change the Weather History Date:

Monday, March 3, 2014

  Actual Average Record
Temperature  
Mean Temperature 68 °F -  
Max Temperature 82 °F 78 °F 93 °F (2013)
Min Temperature 55 °F 51 °F 46 °F (1997)
Cooling Degree Days 4    
Growing Degree Days 18 (Base 50)    
Moisture  
Dew Point 55 °F    
Average Humidity 62    
Maximum Humidity 91    
Minimum Humidity 39    
Precipitation  
Precipitation 0.00 in - - ()
Sea Level Pressure  
Sea Level Pressure 29.86 in    
Wind  
Wind Speed 7 mph ()    
Max Wind Speed 17 mph    
Max Gust Speed -    
Visibility 11.5 miles    
Events      
Averages and records for this station are not official NWS values.
T = Trace of Precipitation, MM = Missing Value Source: Averaged Metar Reports

Daily Weather History Graph

Daily Weather History Graph

Search for Another Location

Airport or City:

Astronomy

Mar. 03, 2014 Rise Set
Actual Time 6:24 AM MST 6:09 PM MST
Civil Twilight 6:02 AM MST 6:31 PM MST
Nautical Twilight 5:36 AM MST 6:58 PM MST
Astronomical Twilight 5:10 AM MST 7:24 PM MST
Moon 7:56 AM MST (3/3) 8:49 PM MST (3/3)
Length of Visible Light 12h 29m
Length of Day
11h 44m
Waxing Crescent, 8% of the Moon is Illuminated
Mar 3
Waxing Crescent
Mar 8
First Quarter
Mar 16
Full
Mar 23
Last Quarter
Mar 30
New

Hourly Weather History & Observations

Time (MST) Temp. Heat Index Dew Point Humidity Pressure Visibility Wind Dir Wind Speed Gust Speed Precip Events Conditions
12:44 AM 57.2 °F - 48.2 °F 72% 29.88 in 10.0 mi ESE 6.9 mph - N/A   Clear
1:51 AM 57.2 °F - 48.2 °F 72% 29.86 in 10.0 mi NNE 9.2 mph - N/A   Clear
2:00 AM 66 °F - 64 °F 91% 29.88 in - Calm Calm - -  
2:51 AM 55.4 °F - 46.4 °F 72% 29.86 in 8.0 mi NE 8.1 mph - N/A   Clear
3:51 AM 55.4 °F - 42.8 °F 63% 29.85 in 8.0 mi North 8.1 mph - N/A   Clear
4:53 AM 55.4 °F - 50.0 °F 82% 29.86 in 8.0 mi NNE 10.4 mph - N/A   Partly Cloudy
5:51 AM 55.4 °F - 46.4 °F 72% 29.85 in 8.0 mi NNE 9.2 mph - N/A   Mostly Cloudy
6:47 AM 62.6 °F - 57.2 °F 82% 29.86 in 10.0 mi North 9.2 mph - N/A   Mostly Cloudy
7:40 AM 59.0 °F - 48.2 °F 67% 29.88 in 12.0 mi North 8.1 mph - N/A   Mostly Cloudy
8:00 AM 70 °F - 61 °F 65% 29.89 in - NNW 2.2 mph - -  
8:41 AM 69.8 °F - 53.6 °F 56% 29.88 in 12.0 mi NNE 8.1 mph - N/A   Partly Cloudy
9:41 AM 73.4 °F - 57.2 °F 57% 29.89 in 15.0 mi SE 8.1 mph - N/A   Partly Cloudy
10:40 AM 75.2 °F - 57.2 °F 53% 29.88 in 15.0 mi SW 8.1 mph - N/A   Mostly Cloudy
11:00 AM 78 °F - 64 °F 53% 29.91 in - West 4.5 mph - -  
11:40 AM 77.0 °F - 59.0 °F 54% 29.87 in 15.0 mi SSW 9.2 mph - N/A   Mostly Cloudy
12:44 PM 80.6 °F 80.8 °F 57.2 °F 45% 29.85 in 15.0 mi WSW 8.1 mph - N/A   Scattered Clouds
1:41 PM 82.4 °F 81.7 °F 55.4 °F 39% 29.84 in 15.0 mi West 8.1 mph - N/A   Mostly Cloudy
2:00 PM 79 °F - 64 °F 51% 29.86 in - West 8.9 mph - -  
2:45 PM 80.6 °F 80.8 °F 57.2 °F 45% 29.81 in 15.0 mi WSW 16.1 mph - N/A   Mostly Cloudy
3:40 PM 78.8 °F - 55.4 °F 44% 29.80 in 14.0 mi WSW 16.1 mph - N/A   Mostly Cloudy
4:40 PM 78.8 °F - 55.4 °F 44% 29.81 in 15.0 mi West 17.3 mph - N/A   Mostly Cloudy
5:00 PM 76 °F - 65 °F 60% 29.84 in - WNW 8.9 mph - -  
5:42 PM 75.2 °F - 51.8 °F 44% 29.81 in 12.0 mi West 11.5 mph - N/A   Mostly Cloudy
6:41 PM 71.6 °F - 55.4 °F 57% 29.84 in 10.0 mi West 15.0 mph - N/A   Partly Cloudy
7:42 PM 68.0 °F - 55.4 °F 64% 29.85 in 10.0 mi WNW 8.1 mph - N/A   Partly Cloudy
8:00 PM 71 °F - 64 °F 74% 29.87 in - WNW 6.7 mph - -  
8:44 PM 64.4 °F - 53.6 °F 68% 29.87 in 10.0 mi SSW 8.1 mph - N/A   Partly Cloudy
9:47 PM 60.8 °F - 50.0 °F 68% 29.88 in 10.0 mi NNE 6.9 mph - N/A   Partly Cloudy
10:50 PM 59.0 °F - 48.2 °F 67% 29.89 in 10.0 mi NNW 6.9 mph - N/A   Clear
11:00 PM 68 °F - 62 °F 76% 29.91 in - NW 4.5 mph - -  
11:43 PM 57.2 °F - 46.4 °F 67% 29.89 in 10.0 mi NNW 6.9 mph - N/A   Clear